sat.trackr.live / text

‹ back to catalog

SHIJIAN-17 (SJ-17)

NORAD 41838 · 2016-065A

PAYLOAD ACTIVE UNKNOWN

§ Identity

Operator
Country
PRC
Launch date
2016-11-03
Launch site
WSC
Launch vehicle
Mass (kg)
RCS (m²)
19.83

Purposes: comms

External: N2YO · Heavens-Above · Gunter

§ Orbital elements

Epoch: 2026-05-25T03:56:57.849216Z

Period
1,442.10 min
Inclination
5.6969°
Eccentricity
0.0001854
Mean motion
0.99854598 rev/d
Perigee alt
35,896.1 km
Apogee alt
35,911.8 km
Semi-major
42,282.1 km
B*
0.0000e+0
RAAN
72.8772°
Arg perigee
9.7099°
Mean anomaly
129.8193°
Rev number
3,497

§ Raw data

SHIJIAN-17 (SJ-17)1 41838U 16065A   26145.16455844 -.00000127  00000+0  00000+0 0  99962 41838   5.6969  72.8772 0001854   9.7099 129.8193  0.99854598 34979

JSON: /api/v1/satellites/41838 · /tle

For live sub-satellite position, see the globe view (requires WebGL).

§ Visibility from observer

Set your observer location to see the next 7 days of passes ≥ 10°. The values pass through the URL so the page stays shareable.

No JS? Fill the form by hand. The geolocation button needs JavaScript.